FW7349 Weather Reports


Display with metric or nautical units.
time (UTC)temp
F
wind
direction
speed
MPH
gust
MPH
rain 1hr
in
rain 24hr
in
rain mn
in
humidity
%
barometer
mb
20260510181534 77 65 6.0 12.0 0.07 0.60 0.07 84 1019.0
20260510180035 76 78 10.0 15.0 0.07 0.60 0.07 88 1018.6
20260510174550 77 84 14.0 18.0 0.07 0.60 0.07 87 1018.9
20260510173038 79 53 7.0 14.0 0.00 0.52 0.00 84 1019.0
20260510171553 79 83 10.0 13.0 0.00 0.52 0.00 84 1019.0
20260510170045 82 86 8.0 14.0 0.00 0.52 0.00 76 1019.1
20260510164542 87 327 1.0 6.0 0.00 0.52 0.00 67 1019.2
20260510163049 85 283 4.0 7.0 0.00 0.52 0.00 69 1019.4
20260510161536 86 311 4.0 6.0 0.00 0.52 0.00 67 1019.5
20260510160043 86 321 3.0 7.0 0.00 0.52 0.00 70 1019.7
20260510154543 83 280 5.0 9.0 0.00 0.52 0.00 72 1019.7
20260510153044 84 316 5.0 11.0 0.00 0.52 0.00 72 1019.6
20260510151541 82 277 7.0 11.0 0.00 0.52 0.00 74 1019.5
20260510150048 82 252 6.0 12.0 0.00 0.52 0.00 74 1019.5
20260510144540 82 288 4.0 9.0 0.00 0.52 0.00 76 1019.4
20260510143042 81 265 4.0 8.0 0.00 0.52 0.00 77 1019.4
20260510141541 81 331 4.0 9.0 0.00 0.52 0.00 79 1019.2
20260510140039 79 254 5.0 10.0 0.00 0.52 0.00 83 1018.9
20260510134536 78 289 6.0 9.0 0.00 0.52 0.00 88 1018.8
20260510133038 77 295 4.0 7.0 0.00 0.52 0.00 90 1018.8
20260510131542 76 292 4.0 9.0 0.00 0.52 0.00 91 1018.7
20260510130042 75 256 6.0 9.0 0.00 0.52 0.00 92 1018.6
20260510124539 75 293 4.0 7.0 0.00 0.52 0.00 93 1018.6
20260510123039 74 274 4.0 6.0 0.00 0.52 0.00 93 1018.4
20260510121538 74 277 2.0 5.0 0.00 0.52 0.00 93 1018.1
20260510120043 73 300 3.0 4.0 0.00 0.52 0.00 93 1018.0
20260510114540 73 313 3.0 5.0 0.00 0.52 0.00 93 1017.9
20260510113042 73 303 3.0 4.0 0.00 0.52 0.00 93 1017.7
20260510111538 72 307 2.0 4.0 0.00 0.52 0.00 93 1017.6
20260510110048 72 321 3.0 6.0 0.00 0.52 0.00 93 1017.5
20260510104536 72 285 3.0 5.0 0.00 0.52 0.00 93 1017.2
20260510103046 72 321 2.0 3.0 0.00 0.52 0.00 93 1017.0
20260510101543 73 305 3.0 5.0 0.00 0.52 0.00 93 1016.7
20260510100047 73 291 3.0 5.0 0.00 0.52 0.00 93 1016.5
20260510094544 73 292 3.0 5.0 0.00 0.52 0.00 93 1016.5
20260510093039 73 276 3.0 5.0 0.00 0.52 0.00 93 1016.3
20260510091541 73 244 3.0 6.0 0.00 0.52 0.00 93 1016.2
20260510090040 73 250 4.0 6.0 0.00 0.52 0.00 93 1016.1
20260510084539 73 238 4.0 6.0 0.00 0.52 0.00 92 1016.1
20260510083037 73 260 3.0 5.0 0.00 0.52 0.00 93 1016.0
20260510081541 73 204 4.0 8.0 0.00 0.52 0.00 93 1015.7
20260510080055 73 224 4.0 5.0 0.00 0.52 0.00 93 1015.9
20260510074549 73 247 4.0 5.0 0.00 0.52 0.00 92 1016.0
20260510073047 73 243 4.0 5.0 0.00 0.52 0.00 92 1016.1
20260510071537 73 236 2.0 4.0 0.00 0.52 0.00 92 1016.2
20260510070045 73 231 3.0 5.0 0.00 0.52 0.00 92 1016.1
20260510064544 73 281 3.0 3.0 0.00 0.52 0.00 92 1016.5
20260510063039 73 285 3.0 3.0 0.00 0.52 0.00 92 1016.7
20260510061537 73 269 3.0 4.0 0.00 0.52 0.00 91 1016.8
20260510060044 73 287 2.0 4.0 0.00 0.52 0.00 91 1017.0
20260510054535 74 197 4.0 5.0 0.00 0.52 0.00 92 1017.0
20260510053046 74 193 3.0 6.0 0.00 0.52 0.00 91 1017.2
20260510051541 73 237 2.0 4.0 0.00 0.52 0.00 91 1017.5
20260510050040 74 300 2.0 4.0 0.00 0.52 0.00 90 1017.7
20260510044536 74 300 1.0 3.0 0.00 0.52 0.00 89 1017.7
20260510043036 75 281 2.0 4.0 0.00 0.52 0.00 88 1017.9
20260510041539 76 219 4.0 9.0 0.00 0.52 0.00 86 1017.8
20260510040045 76 170 5.0 10.0 0.00 0.52 0.00 86 1017.8
20260510034536 76 167 6.0 12.0 0.00 0.52 0.52 86 1017.8
20260510033046 76 172 9.0 12.0 0.00 0.52 0.52 87 1017.8
20260510031538 76 165 8.0 11.0 0.00 0.52 0.52 87 1017.7
20260510030043 76 174 5.0 8.0 0.00 0.52 0.52 87 1017.6
20260510024539 76 191 4.0 9.0 0.00 0.52 0.52 87 1017.6
20260510023037 76 178 4.0 7.0 0.00 0.52 0.52 88 1017.2
20260510021611 76 178 5.0 9.0 0.00 0.52 0.52 88 1017.4
20260510020036 75 127 6.0 7.0 0.00 0.52 0.52 90 1017.2
20260510014552 74 248 2.0 3.0 0.00 0.52 0.52 90 1017.0
20260510013043 74 301 0.0 2.0 0.00 0.52 0.52 90 1016.9
20260510011538 74 301 1.0 2.0 0.00 0.52 0.52 89 1016.8
20260510010049 74 301 1.0 2.0 0.00 0.52 0.52 89 1017.0
20260510004535 74 263 1.0 3.0 0.00 0.52 0.52 87 1016.7
20260510003034 75 20 1.0 2.0 0.00 0.52 0.52 87 1016.6
20260510001539 75 20 1.0 2.0 0.00 0.52 0.52 86 1016.4
20260510000037 75 25 2.0 5.0 0.00 0.52 0.52 85 1016.2
20260509234536 75 40 3.0 5.0 0.00 0.52 0.52 85 1015.9
20260509233035 75 31 3.0 6.0 0.00 0.52 0.52 85 1015.9
20260509231547 75 44 3.0 6.0 0.00 0.52 0.52 85 1015.9
20260509230044 75 23 3.0 6.0 0.00 0.52 0.52 85 1015.9
20260509224536 75 28 4.0 6.0 0.00 2.00 0.52 87 1015.7
20260509223038 75 39 2.0 6.0 0.00 2.00 0.52 87 1015.5
20260509221541 75 14 3.0 8.0 0.01 2.00 0.52 88 1015.6
20260509220048 76 44 4.0 6.0 0.07 2.00 0.52 89 1015.5
20260509214538 76 1 2.0 6.0 0.11 2.00 0.52 90 1015.5
20260509213037 76 56 2.0 4.0 0.14 2.00 0.52 89 1015.5
20260509211539 76 40 1.0 2.0 0.16 1.99 0.52 89 1015.5
20260509210045 75 359 2.0 11.0 0.24 1.92 0.45 88 1015.7
20260509204539 74 9 4.0 8.0 0.41 1.89 0.42 88 1015.4
20260509203037 74 51 1.0 6.0 0.39 1.86 0.39 88 1015.4
20260509201539 75 344 4.0 11.0 0.36 1.83 0.36 87 1015.8
20260509200050 78 307 3.0 10.0 0.20 1.67 0.20 87 1015.8
20260509194552 78 46 6.0 9.0 0.01 1.48 0.01 86 1014.8
20260509193040 78 75 8.0 10.0 0.00 1.47 0.00 84 1015.1
20260509191535 79 65 8.0 10.0 0.00 1.47 0.00 82 1014.8
20260509190036 80 113 4.0 8.0 0.00 1.47 0.00 81 1015.0
20260509184541 81 70 7.0 10.0 0.00 1.47 0.00 79 1015.1
20260509183040 82 63 5.0 8.0 0.00 1.47 0.00 77 1015.4